This is the latest recevied weather packets stored in our database for station/object KC8ZBC. If no packets are shown the sender has not sent any weather packets the latest 10 day(s).
| Time | Temp. | Humidity | Pressure | Rain* | Wind** | Luminosity | Snow |
|---|---|---|---|---|---|---|---|
| 1777996806 | 10° C | 79% | 981.9 hPa | 0 mm | - | 84 W/m² | - |
| 1777996502 | 10° C | 80% | 981.9 hPa | 0 mm | - | 82 W/m² | - |
| 1777996199 | 9.44° C | 83% | 982 hPa | 0 mm | - | 92 W/m² | - |
| 1777995896 | 9.44° C | 80% | 982.1 hPa | 0 mm | - | 66 W/m² | - |
| 1777995591 | 9.44° C | 81% | 982.2 hPa | 0 mm | - | 86 W/m² | - |
| 1777995290 | 10° C | 80% | 982 hPa | 0 mm | - | 87 W/m² | - |
| 1777994986 | 9.44° C | 80% | 982.1 hPa | 0 mm | - | 78 W/m² | - |
| 1777994683 | 9.44° C | 76% | 982.2 hPa | 0 mm | - | 86 W/m² | - |
| 1777994384 | 10° C | 77% | 982.2 hPa | 0 mm | - | 73 W/m² | - |
| 1777994079 | 10° C | 75% | 982.1 hPa | 0 mm | - | 84 W/m² | - |
| 1777993777 | 10° C | 75% | 982 hPa | 0 mm | - | 93 W/m² | - |
| 1777993474 | 10° C | 73% | 981.7 hPa | 0 mm | - | 72 W/m² | - |
| 1777993173 | 10° C | 73% | 982 hPa | 0 mm | - | 79 W/m² | - |
| 1777992871 | 10° C | 73% | 981.8 hPa | 0 mm | - | 81 W/m² | - |
| 1777992569 | 10° C | 73% | 981.5 hPa | 0 mm | - | 86 W/m² | - |
| 1777992267 | 10° C | 73% | 981.1 hPa | 0 mm | - | 91 W/m² | - |
| 1777991964 | 10° C | 74% | 981.2 hPa | 0 mm | - | 82 W/m² | - |
| 1777991662 | 10° C | 73% | 981.3 hPa | 0 mm | - | 73 W/m² | - |
| 1777991359 | 10° C | 74% | 981.3 hPa | 0 mm | - | 53 W/m² | - |
| 1777991056 | 10° C | 74% | 981.4 hPa | 0 mm | - | 76 W/m² | - |
| 1777990753 | 10° C | 74% | 981.3 hPa | 0 mm | - | 91 W/m² | - |
| 1777990450 | 10° C | 75% | 981.3 hPa | 0 mm | - | 93 W/m² | - |
| 1777989844 | 10.56° C | 77% | 981.3 hPa | 0 mm | - | 64 W/m² | - |
| 1777989541 | 10.56° C | 76% | 981.4 hPa | 0 mm | - | 31 W/m² | - |
| 1777989237 | 10.56° C | 77% | 981.3 hPa | 0 mm | - | 38 W/m² | - |
* Rain latest hour (hover to see other rain measurements)
** Current wind speed in m/s (hover to see current wind gust speed)